Location: Buenos Aires
(34.6076°S, 58.4371°W)
Time: 18:39:02
(UTC-03:00)

Tianhe-1 - Visible Passes

Search period start: 24 June 2021 00:00
Search period end: 04 July 2021 00:00
Orbit: 375 x 385 km, 41.5° (Epoch: 24 June)

Date Brightness Start Highest point End Pass type
(mag) Time Alt. Az. Time Alt. Az. Time Alt. Az.
24 Jun 1.4 18:18:12 10° SW 18:21:19 46° SSE 18:24:22 10° E visible
24 Jun 3.3 19:55:12 10° W 19:57:20 25° NW 19:57:20 25° NW visible
25 Jun 1.7 18:53:51 10° WSW 18:56:59 55° NNW 19:00:04 10° NE visible
26 Jun 4.1 19:30:25 10° WNW 19:32:20 15° NW 19:34:14 10° N visible
27 Jun 3.2 18:28:33 10° W 18:31:23 29° NW 18:34:10 10° NNE visible
